Dyersburg, TN

11:44 AM CST on December 05, 2019 (GMT -0600)
Dyersburg Municipal

Weather History for KDYR - October, 2019

Change the Weather History Date:

Thursday, October 17, 2019

  Actual Average Record
Temperature  
Mean Temperature 51 °F -  
Max Temperature 63 °F 68 °F 84 °F (2010)
Min Temperature 39 °F 47 °F 35 °F (2001)
Degree Days  
Heating Degree Days 14    
Growing Degree Days 1 (Base 50)    
Moisture  
Dew Point 42 °F    
Average Humidity 79    
Maximum Humidity 100    
Minimum Humidity 46    
Precipitation  
Precipitation 0.00 in - - ()
Sea Level Pressure  
Sea Level Pressure 30.10 in    
Wind  
Wind Speed 1 mph ()    
Max Wind Speed 6 mph    
Max Gust Speed -    
Visibility 9.8 miles    
Events      
Averages and records for this station are not official NWS values.
T = Trace of Precipitation, MM = Missing Value Source: Averaged Metar Reports

Daily Weather History Graph

Daily Weather History Graph

Search for Another Location

Airport or City:

Astronomy

Oct. 17, 2019 Rise Set
Actual Time 7:06 AM CDT 6:19 PM CDT
Civil Twilight 6:40 AM CDT 6:45 PM CDT
Nautical Twilight 6:10 AM CDT 7:15 PM CDT
Astronomical Twilight 5:40 AM CDT 7:44 PM CDT
Moon 8:57 PM CDT (10/17) 10:32 AM CDT (10/17)
Length of Visible Light 12h 05m
Length of Day
11h 13m
Waning Gibbous, 86% of the Moon is Illuminated
Oct 17
Waning Gibbous
Oct 21
Last Quarter
Oct 27
New
Nov 4
First Quarter
Nov 12
Full

Hourly Weather History & Observations

Time (CDT) Temp. Windchill Dew Point Humidity Pressure Visibility Wind Dir Wind Speed Gust Speed Precip Events Conditions
12:56 AM 43.0 °F - 42.1 °F 97% 30.13 in 10.0 mi Calm Calm - N/A   Clear
1:56 AM 41.0 °F - 41.0 °F 100% 30.14 in 10.0 mi Calm Calm - N/A   Clear
2:56 AM 41.0 °F - 41.0 °F 100% 30.11 in 10.0 mi Calm Calm - N/A   Clear
3:56 AM 41.0 °F - 39.9 °F 96% 30.13 in 10.0 mi Calm Calm - N/A   Clear
4:56 AM 41.0 °F - 39.9 °F 96% 30.13 in 10.0 mi Calm Calm - N/A   Clear
5:56 AM 39.0 °F - 39.0 °F 100% 30.14 in 10.0 mi Calm Calm - N/A   Clear
6:56 AM 39.0 °F - 39.0 °F 100% 30.15 in 8.0 mi Calm Calm - N/A   Clear
7:56 AM 41.0 °F 38.0 °F 41.0 °F 100% 30.15 in 9.0 mi SSW 4.6 mph - N/A   Clear
8:56 AM 48.0 °F - 44.1 °F 86% 30.16 in 10.0 mi North 3.5 mph - N/A   Clear
9:56 AM 53.1 °F - 43.0 °F 69% 30.15 in 10.0 mi Calm Calm - N/A   Clear
10:56 AM 55.0 °F - 39.9 °F 57% 30.15 in 10.0 mi Calm Calm - N/A   Clear
11:56 AM 57.9 °F - 41.0 °F 53% 30.14 in 10.0 mi Calm Calm - N/A   Clear
12:56 PM 60.1 °F - 41.0 °F 49% 30.12 in 10.0 mi NNE 4.6 mph - N/A   Clear
2:56 PM 62.1 °F - 42.1 °F 48% 30.08 in 8.0 mi Calm Calm - N/A   Clear
3:56 PM 63.0 °F - 42.1 °F 46% 30.06 in 10.0 mi Variable 3.5 mph - N/A   Clear
4:56 PM 62.1 °F - 42.1 °F 48% 30.06 in 10.0 mi West 3.5 mph - N/A   Clear
5:56 PM 57.9 °F - 45.0 °F 62% 30.06 in 10.0 mi West 5.8 mph - N/A   Clear
6:56 PM 53.1 °F - 45.0 °F 74% 30.06 in 10.0 mi Calm Calm - N/A   Clear
7:56 PM 50.0 °F - 45.0 °F 83% 30.06 in 10.0 mi Calm Calm - N/A   Clear
8:56 PM 48.9 °F - 45.0 °F 86% 30.04 in 10.0 mi Calm Calm - N/A   Clear
9:56 PM 48.0 °F - 44.1 °F 86% 30.05 in 10.0 mi NE 5.8 mph - N/A   Clear
10:56 PM 46.9 °F - 44.1 °F 90% 30.06 in 10.0 mi Calm Calm - N/A   Clear
11:56 PM 44.1 °F - 43.0 °F 96% 30.05 in 10.0 mi Calm Calm - N/A   Clear